Tracking 29892 objects as of 21-Nov-2024
HD Live streaming from Space Station
objects crossing your sky now

STARLINK-5755

Track STARLINK-5755 now!
10-day predictions
STARLINK-5755 is classified as:


NORAD ID: 55600
Int'l Code: 2023-020AH
Perigee: 565.8 km
Apogee: 566.6 km
Inclination: 43.0 °
Period: 95.8 minutes
Semi major axis: 6937 km
RCS: Unknown
Launch date: February 12, 2023
Source: United States (US)
Launch site: AIR FORCE EASTERN TEST RANGE (AFETR)
Your satellite tracking list
Your tracking list is empty




NASA's NSSDC Master Catalog

Two Line Element Set (TLE):
1 55600U 23020AH  24325.68673024 -.00000128  00000-0  55735-5 0  9997
2 55600  43.0035  47.5502 0000565 287.8937  72.1844 15.02544062 97760
Source of the keplerian elements: AFSPC